Regional Weather Roundup
Issued by NWS

Home | Current Version | Previous Version | Graphics & Text | Print | Product List | Glossary On
Versions: 1 2 3 4 5 6 7 8 9 10 11 12 13 14 15 16 17 18 19 20 21 22 23 24 25 26 27 28 29 30 31 32 33 34 35 36 37 38 39 40 41 42 43 44 45 46 47 48 49 50
000
ASUS43 KOAX 191910
RWRNE

WEATHER ROUNDUP FOR NEBRASKA
NATIONAL WEATHER SERVICE OMAHA NE
100 PM CST SUN FEB 19 2017

NOTES: SATELLITE DATA IS BEING USED TO AUGMENT CLOUD COVER ABOVE
       12000 FEET.
       "FAIR" INDICATES FEW OR NO CLOUDS BELOW 12,000 FEET WITH NO
       SIGNIFICANT WEATHER AND/OR OBSTRUCTIONS TO VISIBILITY.

  * THESE STATIONS DO NOT REPORT WEATHER SUCH AS RAIN...SNOW OR FOG.

NEZ001>004-019>022-054>056-192000-
NEBRASKA PANHANDLE

CITY           SKY/WX    TMP DP  RH WIND       PRES   REMARKS
SCOTTSBLUFF    CLOUDY    53  33  46 SE7       29.64F
ALLIANCE       CLOUDY    58  31  35 S6        29.64F
CHADRON        CLOUDY    65  31  28 S13G18    29.58F
KIMBALL        CLOUDY    60  33  35 E6        29.65F
SIDNEY         CLOUDY    61  30  31 SE6       29.64F
$$

NEZ057>060-069>072-079>082-192000-
SOUTHWEST NEBRASKA

CITY           SKY/WX    TMP DP  RH WIND       PRES   REMARKS
NORTH PLATTE   MOSUNNY   63  42  46 S16G23    29.70F
IMPERIAL       CLOUDY    57  36  45 S10       29.69F
LEXINGTON      MOSUNNY   63  46  52 S18       29.72F
MCCOOK         CLOUDY    64  44  48 S16G22    29.70F
OGALLALA       PTSUNNY   61  35  37 S9        29.67F
$$

NEZ005>010-023>029-035>040-094-192000-
NORTH CENTRAL NEBRASKA

CITY           SKY/WX    TMP DP  RH WIND       PRES   REMARKS
VALENTINE      PTSUNNY   61  34  36 SW16      29.60F
AINSWORTH      CLOUDY    64  43  45 S18G24    29.63F
BROKEN BOW     MOSUNNY   64  46  52 S23G36    29.68F
O`NEILL        PTSUNNY   63  47  55 S14       29.69F
ORD            MOSUNNY   67  44  43 S25G32    29.71F
THEDFORD       MOSUNNY   65  39  38 S16       29.66F
$$

NEZ041-046>049-061>064-073>077-083>087-192000-
SOUTH CENTRAL NEBRASKA

CITY           SKY/WX    TMP DP  RH WIND       PRES   REMARKS
GRAND ISLAND   MOSUNNY   69  47  45 S22G32    29.76F
AURORA         MOSUNNY   66  49  53 S16G25    29.77F
HASTINGS       CLOUDY    68  46  45 S18G28    29.77F
HEBRON         MOSUNNY   68  50  53 S17G24    29.82F
HOLDREGE       MOSUNNY   65  43  44 S20G26    29.75F
KEARNEY *      CLOUDY    66  45  45 S23       29.74F
YORK           CLOUDY    64  50  59 S22       29.79F
$$

NEZ011>018-030>034-042>045-192000-
NORTHEAST NEBRASKA

CITY           SKY/WX    TMP DP  RH WIND       PRES   REMARKS
NORFOLK        MOSUNNY   62  48  60 S22G30    29.76F
ALBION         MOSUNNY   65  50  56 S22       29.76F
BLAIR          CLOUDY    66  50  56 S20G25    29.83F
FREMONT        SUNNY     67  50  54 S13G21    29.83F
TEKAMAH        MOSUNNY   66  51  58 S18       29.82F
WAYNE          MOSUNNY   64  52  64 S22       29.77F
$$

NEZ050>053-065>068-078-088>093-192000-
SOUTHEAST NEBRASKA

CITY           SKY/WX    TMP DP  RH WIND       PRES   REMARKS
LINCOLN        PTSUNNY   68  50  52 S20G25    29.83F
OMAHA EPPLEY   CLOUDY    66  48  52 S21       29.83F
BEATRICE       SUNNY     70  52  53 S21       29.84F
FALLS CITY     CLOUDY    69  52  54 S15G24    29.88F
NEBRASKA CITY  MOSUNNY   67  44  43 S18       29.87F
PLATTSMOUTH    CLOUDY    65  46  49 S16G22    29.86F
$$

NEZ044-045-051>053-067-192000-
OMAHA AREA

CITY           SKY/WX    TMP DP  RH WIND       PRES   REMARKS
OMAHA EPPLEY   CLOUDY    66  48  52 S21       29.83F
BLAIR          CLOUDY    66  50  56 S20G25    29.83F
FREMONT        SUNNY     67  50  54 S13G21    29.83F
MILLARD        SUNNY     69  52  54 S16       29.83F
OFFUTT AFB     MOSUNNY   66  51  58 S16       29.84F
PLATTSMOUTH    CLOUDY    65  46  49 S16G22    29.86F
WAHOO          FAIR      67  48  49 S22       29.83S
$$




USA.gov is the U.S. government's official web portal to all federal, state and local government web resources and services.